Overview Statistics Trail Chart Weather Telemetry Raw packets
 

This is the latest recevied weather packets stored in our database for station/object 4S6DRJ-13. If no packets are shown the sender has not sent any weather packets the latest 10 day(s).

<< 7 8 9 10 11 12 13 >>
Time Temp. Humidity Pressure Rain* Wind** Luminosity Snow
1788431871 30° C 75% 1007.6 hPa 0 mm 0.89 m/s, 193° 198 W/m² -
1788431811 30° C 74% 1007.4 hPa 0 mm 1.34 m/s, 208° 199 W/m² -
1788431749 30° C 74% 1007.4 hPa 0 mm 1.79 m/s, 277° 200 W/m² -
1788431688 30° C 75% 1007.5 hPa 0 mm 1.79 m/s, 276° 206 W/m² -
1788431627 30° C 75% 1007.4 hPa 0 mm 1.34 m/s, 334° 213 W/m² -
1788431587 30° C 74% 1007.2 hPa 0 mm 0.45 m/s, 237° 211 W/m² -
1788431504 30° C 74% 1007.3 hPa 0 mm 0.45 m/s, 253° 211 W/m² -
1788431443 30° C 73% 1007.4 hPa 0 mm 2.24 m/s, 286° 213 W/m² -
1788431382 30° C 73% 1007.4 hPa 0 mm 2.68 m/s, 346° 228 W/m² -
1788431321 30° C 74% 1007.4 hPa 0 mm 1.34 m/s, 173° 231 W/m² -
1788431260 30° C 74% 1007.4 hPa 0 mm 0.45 m/s, 91° 229 W/m² -
1788431199 30° C 74% 1007.3 hPa 0 mm 0.89 m/s, 222° 223 W/m² -
1788431138 30° C 73% 1007.5 hPa 0 mm 0.89 m/s, 241° 212 W/m² -
1788431078 30° C 72% 1007.4 hPa 0 mm 1.34 m/s, 211° 207 W/m² -
1788431016 30° C 73% 1007.5 hPa 0 mm 1.34 m/s, 6° 207 W/m² -
1788430955 30° C 73% 1007.4 hPa 0 mm 1.79 m/s, 121° 207 W/m² -
1788430894 30° C 73% 1007.5 hPa 0 mm 0.89 m/s, 238° 215 W/m² -
1788430834 30° C 72% 1007.4 hPa 0 mm 1.79 m/s, 213° 225 W/m² -
1788430774 30° C 72% 1007.5 hPa 0 mm 1.79 m/s, 241° 234 W/m² -
1788430712 30° C 72% 1007.5 hPa 0 mm 3.13 m/s, 257° 230 W/m² -
1788430651 30.56° C 72% 1007.3 hPa 0 mm 2.24 m/s, 291° 246 W/m² -
1788430590 30.56° C 72% 1007.6 hPa 0 mm 1.79 m/s, 308° 249 W/m² -
1788430529 30.56° C 72% 1007.4 hPa 0 mm 1.79 m/s, 223° 262 W/m² -
1788430468 30.56° C 72% 1007.3 hPa 0 mm 1.34 m/s, 207° 279 W/m² -
1788430407 30.56° C 72% 1007.2 hPa 0 mm 1.34 m/s, 283° 289 W/m² -

* Rain latest hour (hover to see other rain measurements)
** Current wind speed in m/s (hover to see current wind gust speed)